When you browse on this site, cookies collect data to enhance your experience and personalize the content and advertising you see.
Visit our Privacy Policy to learn more. By continuing to use the site, you agree to this use of cookies and data.
  • In Lithuania
  • List of Countries
  • For 7 days
  • Water Temperature
  • Weather Map
  • Weather Widgets
  • user-avatar
    Login

    Hourly Weather Kobdo

    Today, 14 November, Thursday

    Time Temperature Precipitation Wind Pressure Humidity
    00:00 -11°C° 0 mm 4 mps 586 mmHg 58%
    01:00 -11°C° 0 mm 4 mps 586 mmHg 57%
    02:00 -11°C° 0 mm 4 mps 585 mmHg 56%
    03:00 -11°C° 0 mm 4 mps 585 mmHg 54%
    04:00 -11°C° 0 mm 4 mps 585 mmHg 53%
    05:00 -11°C° 0 mm 4 mps 585 mmHg 52%
    06:00 -11°C° 0 mm 4 mps 585 mmHg 51%
    07:00 -9°C° 0 mm 3 mps 585 mmHg 50%
    08:00 -8°C° 0 mm 3 mps 585 mmHg 49%
    09:00 -8°C° 0 mm 3 mps 586 mmHg 48%
    10:00 -7°C° 0 mm 3 mps 586 mmHg 45%
    11:00 -5°C° 0 mm 2 mps 586 mmHg 43%
    12:00 -4°C° 0 mm 2 mps 586 mmHg 41%
    13:00 -4°C° 0 mm 2 mps 586 mmHg 44%
    14:00 -5°C° 0 mm 2 mps 585 mmHg 46%
    15:00 -6°C° 0 mm 2 mps 585 mmHg 49%
    16:00 -8°C° 0 mm 3 mps 584 mmHg 48%
    17:00 -9°C° 0 mm 3 mps 584 mmHg 47%
    18:00 -10°C° 0 mm 3 mps 584 mmHg 46%
    19:00 -11°C° 0 mm 4 mps 584 mmHg 45%
    20:00 -11°C° 0 mm 4 mps 584 mmHg 45%
    21:00 -11°C° 0 mm 4 mps 583 mmHg 44%
    22:00 -11°C° 0 mm 4 mps 583 mmHg 45%
    23:00 -11°C° 0 mm 4 mps 583 mmHg 46%

    Tomorrow, 15 November, Friday

    Time Temperature Precipitation Wind Pressure Humidity
    00:00 -12°C° 0 mm 4 mps 583 mmHg 47%
    01:00 -12°C° 0 mm 4 mps 583 mmHg 49%
    02:00 -12°C° 0 mm 4 mps 583 mmHg 50%
    03:00 -12°C° 0 mm 4 mps 583 mmHg 52%
    04:00 -12°C° 0 mm 4 mps 582 mmHg 54%
    05:00 -12°C° 0 mm 4 mps 582 mmHg 55%
    06:00 -12°C° 0 mm 4 mps 582 mmHg 57%
    07:00 -12°C° 0 mm 4 mps 582 mmHg 57%
    08:00 -11°C° 0 mm 4 mps 582 mmHg 56%
    09:00 -11°C° 0 mm 4 mps 582 mmHg 56%
    10:00 -11°C° 0 mm 5 mps 582 mmHg 53%
    11:00 -10°C° 0 mm 5 mps 582 mmHg 49%
    12:00 -8°C° 0 mm 5 mps 582 mmHg 46%
    13:00 -8°C° 0 mm 5 mps 581 mmHg 48%
    14:00 -8°C° 0 mm 5 mps 581 mmHg 51%
    15:00 -10°C° 0 mm 5 mps 580 mmHg 53%
    16:00 -11°C° 0 mm 5 mps 580 mmHg 57%
    17:00 -12°C° 0 mm 5 mps 580 mmHg 60%
    18:00 -12°C° 0 mm 4 mps 580 mmHg 64%
    19:00 -13°C° 0 mm 5 mps 580 mmHg 63%
    20:00 -14°C° 0 mm 5 mps 580 mmHg 63%
    21:00 -14°C° 0 mm 5 mps 580 mmHg 62%
    22:00 -15°C° 0 mm 4 mps 580 mmHg 64%
    23:00 -15°C° 0 mm 3 mps 580 mmHg 65%

    Day after tomorrow, 16 November, Saturday

    Time Temperature Precipitation Wind Pressure Humidity
    00:00 -14°C° 0 mm 2 mps 580 mmHg 67%
    01:00 -15°C° 0.1 mm 2 mps 581 mmHg 73%
    02:00 -16°C° 0.1 mm 2 mps 582 mmHg 80%
    03:00 -17°C° 0.1 mm 2 mps 582 mmHg 87%
    04:00 -18°C° 0.3 mm 2 mps 583 mmHg 88%
    05:00 -19°C° 0.3 mm 2 mps 583 mmHg 90%
    06:00 -20°C° 0.3 mm 2 mps 584 mmHg 91%
    07:00 -22°C° 0.3 mm 3 mps 585 mmHg 90%
    08:00 -23°C° 0.3 mm 3 mps 585 mmHg 89%
    09:00 -24°C° 0.3 mm 3 mps 586 mmHg 88%
    10:00 -24°C° 0.1 mm 3 mps 586 mmHg 84%
    11:00 -24°C° 0.1 mm 3 mps 587 mmHg 79%
    12:00 -24°C° 0.1 mm 3 mps 587 mmHg 75%
    13:00 -24°C° 0 mm 3 mps 588 mmHg 73%
    14:00 -23°C° 0 mm 2 mps 588 mmHg 71%
    15:00 -23°C° 0 mm 2 mps 589 mmHg 70%
    16:00 -24°C° 0 mm 2 mps 589 mmHg 71%
    17:00 -24°C° 0 mm 2 mps 589 mmHg 72%
    18:00 -25°C° 0 mm 2 mps 590 mmHg 73%
    19:00 -25°C° 0 mm 2 mps 590 mmHg 72%
    20:00 -25°C° 0 mm 2 mps 590 mmHg 71%
    21:00 -25°C° 0 mm 2 mps 591 mmHg 70%
    22:00 -22°C° 0 mm 1 mps 591 mmHg 70%
    23:00 -22°C° 0 mm 1 mps 591 mmHg 69%

    17 November, Sunday

    Time Temperature Precipitation Wind Pressure Humidity
    00:00 -22°C° 0 mm 1 mps 591 mmHg 69%
    01:00 -22°C° 0 mm 1 mps 591 mmHg 68%
    02:00 -22°C° 0 mm 1 mps 591 mmHg 67%
    03:00 -22°C° 0 mm 1 mps 591 mmHg 65%
    04:00 -22°C° 0 mm 1 mps 591 mmHg 66%
    05:00 -21°C° 0 mm 1 mps 591 mmHg 66%
    06:00 -20°C° 0 mm 1 mps 591 mmHg 66%
    07:00 -20°C° 0 mm 1 mps 591 mmHg 65%
    08:00 -21°C° 0 mm 2 mps 591 mmHg 64%
    09:00 -20°C° 0 mm 2 mps 591 mmHg 64%
    10:00 -20°C° 0 mm 2 mps 591 mmHg 64%
    11:00 -19°C° 0 mm 2 mps 590 mmHg 64%
    12:00 -18°C° 0 mm 2 mps 590 mmHg 64%
    13:00 -18°C° 0 mm 2 mps 590 mmHg 66%
    14:00 -18°C° 0 mm 2 mps 590 mmHg 68%
    15:00 -18°C° 0 mm 2 mps 590 mmHg 70%
    16:00 -19°C° 0 mm 2 mps 590 mmHg 70%
    17:00 -21°C° 0 mm 3 mps 590 mmHg 70%
    18:00 -22°C° 0 mm 3 mps 590 mmHg 70%
    19:00 -22°C° 0 mm 3 mps 590 mmHg 68%
    20:00 -21°C° 0 mm 3 mps 590 mmHg 66%
    21:00 -21°C° 0 mm 3 mps 590 mmHg 64%
    22:00 -19°C° 0 mm 2 mps 590 mmHg 62%
    23:00 -19°C° 0 mm 2 mps 589 mmHg 60%

    18 November, Monday

    Time Temperature Precipitation Wind Pressure Humidity
    00:00 -18°C° 0 mm 2 mps 589 mmHg 58%
    01:00 -18°C° 0 mm 2 mps 589 mmHg 58%
    02:00 -18°C° 0 mm 2 mps 589 mmHg 58%
    03:00 -16°C° 0 mm 1 mps 589 mmHg 58%
    04:00 -16°C° 0 mm 1 mps 588 mmHg 58%
    05:00 -18°C° 0 mm 2 mps 588 mmHg 58%
    06:00 -18°C° 0 mm 2 mps 588 mmHg 58%
    07:00 -17°C° 0 mm 2 mps 588 mmHg 58%
    08:00 -16°C° 0 mm 2 mps 588 mmHg 57%
    09:00 -15°C° 0 mm 2 mps 589 mmHg 56%
    10:00 -14°C° 0 mm 3 mps 589 mmHg 57%
    11:00 -13°C° 0 mm 3 mps 588 mmHg 58%
    12:00 -12°C° 0 mm 3 mps 588 mmHg 59%
    13:00 -12°C° 0 mm 3 mps 588 mmHg 62%
    14:00 -12°C° 0 mm 3 mps 588 mmHg 65%
    15:00 -13°C° 0 mm 3 mps 587 mmHg 68%
    16:00 -13°C° 0 mm 3 mps 587 mmHg 68%
    17:00 -13°C° 0 mm 3 mps 587 mmHg 68%
    18:00 -14°C° 0 mm 3 mps 586 mmHg 68%
    19:00 -15°C° 0 mm 4 mps 586 mmHg 68%
    20:00 -15°C° 0 mm 4 mps 586 mmHg 68%
    21:00 -14°C° 0 mm 4 mps 586 mmHg 67%
    22:00 -14°C° 0 mm 4 mps 586 mmHg 67%
    23:00 -14°C° 0 mm 4 mps 586 mmHg 67%

    19 November, Tuesday

    Time Temperature Precipitation Wind Pressure Humidity
    00:00 -14°C° 0 mm 4 mps 586 mmHg 67%
    01:00 -15°C° 0 mm 4 mps 586 mmHg 67%
    02:00 -15°C° 0 mm 4 mps 585 mmHg 68%
    03:00 -15°C° 0 mm 4 mps 585 mmHg 68%
    04:00 -15°C° 0 mm 4 mps 585 mmHg 68%
    05:00 -15°C° 0 mm 4 mps 585 mmHg 68%
    06:00 -16°C° 0 mm 4 mps 585 mmHg 68%
    07:00 -14°C° 0 mm 3 mps 586 mmHg 68%
    08:00 -13°C° 0 mm 3 mps 586 mmHg 67%
    09:00 -12°C° 0 mm 3 mps 586 mmHg 67%
    10:00 -10°C° 0 mm 3 mps 586 mmHg 65%
    11:00 -9°C° 0 mm 3 mps 586 mmHg 64%
    12:00 -8°C° 0 mm 3 mps 586 mmHg 62%
    13:00 -8°C° 0 mm 3 mps 586 mmHg 64%
    14:00 -8°C° 0 mm 2 mps 585 mmHg 66%
    15:00 -8°C° 0 mm 2 mps 585 mmHg 67%
    16:00 -10°C° 0 mm 3 mps 585 mmHg 68%
    17:00 -12°C° 0 mm 3 mps 584 mmHg 68%
    18:00 -14°C° 0 mm 4 mps 584 mmHg 68%
    19:00 -14°C° 0 mm 4 mps 584 mmHg 68%
    20:00 -14°C° 0 mm 4 mps 584 mmHg 68%
    21:00 -14°C° 0 mm 4 mps 584 mmHg 68%
    22:00 -14°C° 0 mm 4 mps 583 mmHg 68%
    23:00 -14°C° 0 mm 4 mps 583 mmHg 68%
    Show more